TimeEST,TemperatureF,Dew PointF,Humidity,Sea Level PressureIn,VisibilityMPH,Wind Direction,Wind SpeedMPH,Gust SpeedMPH,PrecipitationIn,Events,Conditions,WindDirDegrees,DateUTC
12:53 AM,30.0,27.0,88,30.16,10.0,Calm,Calm,-,N/A,,Clear,0,2012-11-05 05:53:00
1:53 AM,28.9,26.1,89,30.17,9.0,Calm,Calm,-,N/A,,Clear,0,2012-11-05 06:53:00
2:53 AM,28.0,25.0,88,30.18,8.0,Calm,Calm,-,N/A,,Clear,0,2012-11-05 07:53:00
3:53 AM,26.1,24.1,92,30.16,7.0,Calm,Calm,-,N/A,,Clear,0,2012-11-05 08:53:00
4:53 AM,27.0,24.1,89,30.17,5.0,Calm,Calm,-,N/A,,Clear,0,2012-11-05 09:53:00
5:53 AM,24.1,21.9,91,30.17,6.0,East,3.5,-,N/A,,Clear,80,2012-11-05 10:53:00
7:18 AM,24.8,23.0,93,30.15,1.8,Calm,Calm,-,N/A,,Clear,0,2012-11-05 12:18:00
7:31 AM,24.8,23.0,93,30.15,3.0,Calm,Calm,-,N/A,,Clear,0,2012-11-05 12:31:00
7:53 AM,27.0,25.0,92,30.17,5.0,NNE,3.5,-,N/A,,Clear,20,2012-11-05 12:53:00
8:53 AM,32.0,30.0,92,30.19,5.0,Calm,Calm,-,N/A,,Clear,0,2012-11-05 13:53:00
9:53 AM,37.0,30.9,79,30.18,10.0,Calm,Calm,-,N/A,,Clear,0,2012-11-05 14:53:00
10:53 AM,41.0,30.9,67,30.17,10.0,SE,3.5,-,N/A,,Clear,140,2012-11-05 15:53:00
11:25 AM,42.8,30.2,61,30.15,10.0,East,5.8,-,N/A,,Mostly Cloudy,90,2012-11-05 16:25:00
11:53 AM,43.0,30.0,60,30.17,10.0,Variable,5.8,-,N/A,,Scattered Clouds,0,2012-11-05 16:53:00
12:53 PM,44.1,30.0,58,30.14,10.0,ENE,8.1,-,N/A,,Clear,70,2012-11-05 17:53:00
1:53 PM,46.0,28.9,51,30.12,10.0,Variable,3.5,-,N/A,,Clear,0,2012-11-05 18:53:00
2:53 PM,45.0,28.9,53,30.11,10.0,North,-9999.0,-,N/A,,Clear,0,2012-11-05 19:53:00
3:53 PM,45.0,28.0,52,30.10,10.0,ENE,4.6,-,N/A,,Clear,70,2012-11-05 20:53:00
4:53 PM,44.1,28.9,55,30.10,10.0,NE,5.8,-,N/A,,Clear,50,2012-11-05 21:53:00
5:53 PM,37.9,28.9,70,30.12,10.0,ENE,3.5,-,N/A,,Clear,60,2012-11-05 22:53:00
6:53 PM,37.9,28.9,70,30.13,10.0,NE,4.6,-,N/A,,Clear,40,2012-11-05 23:53:00
7:53 PM,34.0,28.0,79,30.13,10.0,Calm,Calm,-,N/A,,Clear,0,2012-11-06 00:53:00
8:53 PM,30.9,26.1,82,30.13,9.0,NE,3.5,-,N/A,,Clear,50,2012-11-06 01:53:00
9:53 PM,30.9,27.0,85,30.13,9.0,NE,3.5,-,N/A,,Clear,50,2012-11-06 02:53:00
10:53 PM,28.9,26.1,89,30.10,8.0,East,5.8,-,N/A,,Clear,80,2012-11-06 03:53:00
11:53 PM,28.9,26.1,89,30.09,8.0,East,6.9,-,N/A,,Clear,80,2012-11-06 04:53:00